Location: American Medical Response
(33.3472°N, 96.5511°W)
Time: 05:01:42
(UTC+00:00)

SJ 16-02 - Pass Details

Date: 03 July 2022
Orbit: 604 x 615 km, 75.0° (Epoch: 07 August)

Event Time Altitude Azimuth Distance (km) Brightness Sun altitude
Rises 06:31:07 0° 348° (NNW) 2,889 5.8 -33.7°
Reaches altitude 10° 06:33:24 10° 352° (N) 1,980 4.7 -33.7°
Enters shadow 06:35:13 24° 360° (N) 1,289 3.5 -33.7°
